COSMO-SKYMED 3

Last updated on Sat Apr 13 2024 01:02:24 GMT+0100 (British Summer Time)

1 33412U 08054A 24103.52852068 .00003833 00000+0 33959-3 0 9994 2 33412 97.8802 299.7521 0017246 74.4421 285.8702 14.96736609837467
UTC large
Height (km)
Speed (km/s)
/
Latitude / Longitude
Inclination (degrees)
Orbital Period (minutes)
Azimuth
Elevation
Range (km)
Doppler Factor

Next 0 passes for location: London (51.5072 / 0.1276)

Sorry there are no passes over London.